DELTA 1 DEB, 19000

Orbit data source: Space-Track

DELTA 1 DEB, 19000 is space debris in SSO originally from a launch on Thu, 29 Jul 1976 UTC launched from the Air Force Western Test Range (AFWTR). Debris objects in space refer to the collection of defunct objects orbiting the Earth. Examples of debris include non-operational satellites, rocket bodies, and fragments generated from explosions, collisions, or faulty payload assembly.

Loading next visibility...
Identifier
19000, 1976-077FH
Orbit
SSO
Country
Flag of USUS
Related business
Manufacturer
Unknown
Mission
Spacecraft
Bus & Motor
Unknown
Mass
Unknown
Launch date (UTC)
1976-07-29 (50 years ago)
Launch vehicle
Unknown
Launch site
Air Force Western Test Range (AFWTR)
Object type
Payload
Rocket body
Debris
Shape & HBR
Unknown shape, 0.1 m
Radar Cross Section
Small (<0.1 m²)

Expand to show TLE details & history
Last TLE update: 13 hours ago

TLE from 13 hours ago
0 DELTA 1 DEB
1 19000U 76077FH  26126.24774406 -.00000042  00000-0  38772-4 0  9996
2 19000 102.6024 115.3901 0078709  33.5847  84.0110 12.26760190721781
Epoch: 2026-05-06T05:56Z
TLE epoch observation values (Epoch: 2026-05-06T05:56:45.086Z)
Latitude
59.15085°
Longitude
3.96085°
Altitude
1,566.988 km
Speed
7.092 km/s
True Right ascension
21h 09m 02s
True Declination
59° 00' 53"
Sunlit
Object was in daylight at epoch
Visualization orbit readout
Latitude
Unknown
Longitude
Unknown
Altitude
Unknown
Speed
Unknown
Apparent Right ascension
Unknown
Apparent Declination
Unknown
Sunlit
N/A
Visualization observer readout
Local Sidereal Time
02:58:19
Azimuth
Unknown
Elevation
Unknown
Doppler factor
Unknown
Orbital elements
Apogee altitude
1,623.348 km
Perigee altitude
1,498.374 km
Semi-major axis
7,938.998 km
Eccentricity
0.00787
Inclination
102.6024°
RAAN
115.3901°
Arg. of periapsis
33.5847°
True anomaly
84.9089°
Mean anomaly
84.011°
Eccentric anomaly
84.45986°
Mean motion
3.06828 °/min
Orbital period
117.33 mins
BSTAR
0.000038772
Loading maneuver chart data...
Computing Atmospheric mass density...
Loading historical data...
Loading historical data...
Loading historical data...
Loading historical data...
Loading historical data...
Loading historical data...
Loading historical data...

Documentation

Showing up to 5 results
|